Cloud_Cover
0 0 0 0 0 0 0 0 0 0 0 0 0 6 3 0 0 0 0 0 0 0 0 23 100 100 100 100 100 100 100 0 0 0 0 1 0 0 0 0 0 0 0 0 34
0 0 0 0 0 0 0 0 0 0 0 0 0 4 0 0 0 0 0 0 0 0 0 46 100 100 100 100 100 100 100 0 0 0 0 0 0 2 0 0 0 0 0 0 0
0 0 0 0 0 0 0 0 0 0 0 1 0 0 0 0 0 0 0 0 0 0 0 87 99 100 100 100 100 100 4 0 0 0 0 0 0 2 1 0 0 0 0 0 0
0 0 0 0 0 0 0 0 0 0 0 0 3 0 0 0 0 0 0 0 0 0 1 30 100 25 100 89 18 5 5 5 2 30 0 0 7 0 0 0 0 0 0 0 0
0 0 0 0 0 0 0 0 0 0 0 0 0 0 0 0 0 0 0 0 0 0 0 4 62 93 77 49 1 5 4 11 0 0 61 0 0 0 0 0 0 0 0 0 0
0 0 0 0 0 0 0 0 0 0 0 0 0 9 0 0 0 0 0 0 0 0 0 0 3 38 90 14 77 98 5 0 0 4 51 2 19 7 1 0 0 0 0 0 0
0 0 0 0 0 0 0 0 0 0 0 0 0 0 0 0 0 0 0 0 0 0 0 0 4 12 6 93 5 100 100 83 4 0 0 60 78 29 6 0 0 0 0 1 0
0 0 0 0 0 0 0 0 0 0 0 0 0 0 0 0 0 0 0 0 0 0 0 0 0 7 84 87 50 100 100 100 100 84 1 4 6 9 0 0 0 0 0 4 0
0 0 0 0 0 0 0 0 0 0 0 0 0 0 0 0 0 0 0 0 0 0 0 0 0 51 94 64 100 100 100 100 100 56 4 0 1 3 0 0 0 0 0 4 0
0 0 0 0 0 0 0 0 0 0 0 0 0 0 0 0 0 0 0 0 0 0 0 0 0 100 98 70 100 100 100 100 100 39 67 92 79 22 5 70 5 0 0 2 0
0 0 0 0 0 0 5 0 0 0 0 0 0 0 0 0 0 0 0 0 0 0 0 0 0 76 30 100 100 91 100 100 100 100 18 87 100 100 2 2 0 5 0 0 0
0 0 0 0 0 0 19 0 0 0 0 0 0 0 0 0 0 0 0 0 0 0 0 0 0 2 98 100 100 99 100 100 100 57 7 82 88 79 1 5 78 100 86 12 3
0 0 0 0 0 0 0 0 0 0 0 0 0 0 0 0 0 0 0 0 0 0 0 0 0 0 2 12 94 91 100 100 100 68 33 23 27 100 11 5 62 36 100 100 100
0 0 0 0 0 0 0 0 0 0 0 0 0 0 0 0 0 0 0 0 0 0 0 0 0 0 0 0 0 5 92 100 100 100 55 28 15 100 96 100 39 99 96 22 51
0 0 0 0 0 0 0 0 0 0 0 0 0 0 0 0 0 0 0 0 0 0 0 0 0 0 0 0 0 0 100 100 75 94 6 10 4 5 100 94 91 100 64 16 100
0 0 3 0 0 0 0 0 0 0 0 0 0 0 0 0 0 0 0 0 0 0 0 0 0 0 0 0 0 0 6 43 1 27 2 11 68 7 100 100 100 10 83 18 100
0 0 28 0 0 0 0 0 0 0 0 1 0 0 0 0 0 0 0 0 0 0 0 0 0 0 0 0 0 0 0 0 0 0 1 3 84 100 92 84 100 95 31 100 97
0 0 0 0 0 0 0 0 0 0 0 73 4 0 0 0 0 0 0 0 0 0 0 0 0 0 0 0 0 0 0 0 0 0 33 100 94 100 30 100 100 100 85 100 99
0 0 0 0 0 0 0 0 0 0 0 0 0 0 0 0 0 0 0 0 0 0 0 0 0 0 0 0 0 0 0 0 0 0 0 30 12 5 5 100 100 100 100 57 78
0 0 0 0 0 0 0 0 0 0 0 0 0 0 21 100 40 3 0 0 0 0 0 0 0 0 0 0 0 0 0 0 0 0 0 3 0 0 14 73 3 81 50 35 5
0 0 0 0 0 0 0 0 0 0 0 0 0 0 4 99 98 80 10 2 0 0 0 0 0 0 0 0 0 0 0 0 0 0 0 43 0 0 5 0 0 100 95 13 72
0 0 0 0 0 0 0 0 0 0 0 0 0 0 0 43 48 100 72 44 100 5 0 0 0 0 0 1 0 0 0 0 0 0 0 0 96 0 31 2 0 92 7 2 97
0 0 0 0 0 0 0 0 0 0 0 0 0 0 0 3 5 37 15 80 45 5 0 0 0 0 0 1 3 0 0 0 0 0 0 0 93 63 80 66 3 0 16 1 71
0 0 0 0 0 0 0 0 0 0 0 0 0 0 0 0 0 0 0 55 10 0 0 0 0 0 0 0 68 26 0 0 0 0 0 0 79 94 6 87 43 5 50 0 9
0 0 0 0 0 0 0 0 0 0 0 0 0 0 0 0 0 0 0 98 34 1 0 0 0 0 0 1 73 14 0 0 0 0 0 6 20 100 68 1 0 4 0 1 0
0 0 0 0 0 0 0 0 0 0 0 6 0 0 0 0 0 3 0 1 6 18 0 0 0 0 0 0 1 16 100 21 0 0 0 0 1 3 74 100 66 3 0 0 4
0 4 0 0 0 0 0 0 0 0 0 5 29 0 1 2 0 0 1 3 2 4 5 0 0 0 0 0 0 0 4 2 0 0 0 0 2 0 1 0 0 0 0 0 4